This demonstration page uses our WeatherBlox Daily Observations layout. Learn more.

Left ArrowRight Arrow

Hourly Observations for December 24, 2020

Temp ( °F °C ) Dew Point ( °F °C ) Humidity (%) Winds ( mph kmh ) Pressure ( in mb ) Visibility ( mi km ) Precip ( " mm )
12:51 am 00:51 Clear 38 3.3 -2 -18.9 18 18 ESE 8 13 30.35 1028 10 16.0934 0 0
1:51 am 01:51 Clear 33 0.6 0 -17.8 24 24 E 9 15 30.39 1029 10 16.0934 0 0
2:51 am 02:51 Clear 32 0 -1 -18.3 24 24 ESE 7 11 30.4 1030 10 16.0934 0 0
3:51 am 03:51 Clear 31 -0.6 0 -17.8 26 26 Calm 30.43 1031 10 16.0934 0 0
4:51 am 04:51 Clear 28 -2.2 1 -17.2 31 31 S 9 15 30.45 1031 10 16.0934 0 0
5:51 am 05:51 Clear 32 0 0 -17.8 25 25 SE 8 13 30.45 1031 10 16.0934 0 0
6:51 am 06:51 Clear 33 0.6 0 -17.8 24 24 ESE 13 20 30.46 1031 10 16.0934 0 0
7:51 am 07:51 Sunny 34 1.1 0 -17.8 23 23 SE 16 26 30.47 1032 10 16.0934 0 0
8:51 am 08:51 Sunny 35 1.7 1 -17.2 23 23 SE 10 17 30.5 1033 10 16.0934 0 0
9:51 am 09:51 Sunny 38 3.3 2 -16.7 22 22 ESE 8 13 30.51 1033 10 16.0934 0 0
10:51 am 10:51 Sunny 44 6.7 -1 -18.3 15 15 E 9 15 30.49 1032 10 16.0934 0 0
11:51 am 11:51 Sunny 45 7.2 0 -17.8 15 15 ESE 9 15 30.43 1031 10 16.0934 0 0
12:51 pm 12:51 Sunny 46 7.8 0 -17.8 14 14 E 9 15 30.38 1029 10 16.0934 0 0
1:51 pm 13:51 Sunny 47 8.3 1 -17.2 15 15 E 8 13 30.35 1028 10 16.0934 0 0
2:51 pm 14:51 Sunny 48 8.9 1 -17.2 14 14 E 9 15 30.32 1027 10 16.0934 0 0
3:51 pm 15:51 Sunny 48 8.9 1 -17.2 14 14 SE 9 15 30.3 1026 10 16.0934 0 0
4:51 pm 16:51 Sunny 47 8.3 2 -16.7 15 15 ESE 7 11 30.32 1027 10 16.0934 0 0
5:51 pm 17:51 Clear 43 6.1 3 -16.1 19 19 E 7 11 30.34 1028 10 16.0934 0 0
6:51 pm 18:51 Clear 41 5 3 -16.1 20 20 E 8 13 30.35 1028 10 16.0934 0 0
7:51 pm 19:51 Clear 43 6.1 1 -17.2 17 17 E 10 17 30.34 1027 10 16.0934 0 0
8:51 pm 20:51 Clear 44 6.7 1 -17.2 16 16 E 14 22 30.32 1027 10 16.0934 0 0
9:51 pm 21:51 Clear 46 7.8 -1 -18.3 14 14 E 12 19 30.32 1027 10 16.0934 0 0
10:51 pm 22:51 Clear 40 4.4 2 -16.7 20 20 SE 9 15 30.33 1027 10 16.0934 0 0
11:51 pm 23:51 Clear 41 5 1 -17.2 18 18 SE 9 15 30.33 1027 10 16.0934 0 0

Powered by AerisWeather